EW9729 Weather Reports


time (UTC)temp
C
wind
direction
speed
KPH
gust
KPH
rain 1hr
cm
rain 24hr
cm
rain mn
cm
humidity
%
barometer
mb
20260509112517 21 0.0 0.0 0.00 0.00 0.00 91 1010.5
20260509111517 21 0.0 0.0 0.00 0.00 0.00 91 1010.4
20260509110618 21 0.0 0.0 0.00 0.00 0.00 91 1010.6
20260509105517 21 0.0 1.6 0.00 0.00 0.00 90 1010.5
20260509104517 21 0.0 0.0 0.00 0.00 0.00 90 1010.4
20260509103517 21 0.0 0.0 0.00 0.00 0.00 90 1010.4
20260509102517 21 0 3.2 4.8 0.00 0.00 0.00 90 1010.3
20260509101537 21 0 3.2 4.8 0.00 0.00 0.00 90 1010.1
20260509100517 21 0 1.6 1.6 0.00 0.00 0.00 91 1010.0
20260509095517 21 0.0 1.6 0.00 0.00 0.00 91 1009.7
20260509094517 21 135 1.6 3.2 0.00 0.00 0.00 90 1009.3
20260509093517 20 135 1.6 6.4 0.00 0.00 0.00 90 1008.6
20260509092517 20 90 3.2 9.7 0.00 0.00 0.00 90 1008.6
20260509091537 20 113 3.2 6.4 0.00 0.00 0.00 90 1008.3
20260509090517 20 158 3.2 4.8 0.00 0.00 0.00 90 1008.5
20260509085517 20 180 4.8 12.9 0.00 0.00 0.00 90 1008.8
20260509084517 20 135 3.2 3.2 0.00 0.00 0.00 90 1009.3
20260509083517 20 0.0 0.0 0.00 0.00 0.00 90 1009.9
20260509082517 20 135 3.2 6.4 0.00 0.00 0.00 89 1010.3
20260509081517 20 0.0 0.0 0.00 0.00 0.00 89 1010.9
20260509080517 20 135 1.6 1.6 0.00 0.00 0.00 89 1011.2
20260509075517 20 0.0 0.0 0.00 0.00 0.00 89 1011.4
20260509074517 20 0.0 0.0 0.00 0.00 0.00 89 1011.6
20260509073517 20 0.0 0.0 0.00 0.00 0.00 89 1011.9
20260509072517 20 0.0 0.0 0.00 0.00 0.00 89 1012.1
20260509071517 20 0.0 1.6 0.00 0.00 0.00 89 1011.9
20260509070517 20 0.0 3.2 0.00 0.00 0.00 89 1011.6
20260509065517 20 0.0 0.0 0.00 0.00 0.00 89 1010.9
20260509064517 20 0.0 0.0 0.00 0.00 0.00 88 1011.2
20260509063517 20 0.0 1.6 0.00 0.00 0.00 88 1011.1
20260509062537 20 0.0 1.6 0.00 0.00 0.00 88 1011.1
20260509061517 20 0.0 0.0 0.00 0.00 0.00 87 1011.8
20260509060517 21 0.0 0.0 0.00 0.00 0.00 87 1011.8
20260509055517 21 0 1.6 1.6 0.00 0.00 0.00 86 1011.7
20260509054517 21 0.0 1.6 0.00 0.00 0.00 86 1012.0
20260509053537 21 0.0 1.6 0.00 0.00 0.00 86 1012.5
20260509052517 21 0 1.6 1.6 0.00 0.00 0.00 86 1012.5
20260509051517 21 0 1.6 3.2 0.00 0.00 0.00 86 1011.5
20260509050536 21 0.0 1.6 0.00 0.00 0.00 86 1011.5
20260509045517 21 0.0 1.6 0.00 0.00 0.00 86 1011.0
20260509044517 21 0.0 0.0 0.00 0.00 0.00 86 1010.7
20260509043517 21 0.0 0.0 0.00 0.00 0.00 85 1010.7
20260509042517 21 0.0 0.0 0.00 0.00 0.00 85 1011.5
20260509041517 21 0.0 0.0 0.00 0.00 0.00 83 1011.9
20260509040517 21 0.0 0.0 0.00 0.00 0.00 83 1012.0
20260509035517 21 0.0 0.0 0.00 0.00 0.00 83 1012.0
20260509034517 21 0.0 0.0 0.00 0.00 0.00 84 1011.7
20260509033517 21 0.0 0.0 0.00 0.00 0.00 83 1011.3
20260509032557 21 0.0 0.0 0.00 0.00 0.00 82 1011.3
20260509031517 21 0.0 0.0 0.00 0.00 0.00 82 1011.2
20260509030517 21 0.0 0.0 0.00 0.00 0.00 82 1011.1
20260509025517 21 0.0 0.0 0.00 0.00 0.00 83 1010.9
20260509024517 21 0.0 0.0 0.00 0.00 0.00 82 1010.8
20260509023537 22 0.0 0.0 0.00 0.00 0.00 81 1010.4
20260509022517 22 0.0 0.0 0.00 0.00 0.00 81 1010.3
20260509021517 21 135 1.6 3.2 0.00 0.00 0.00 82 1010.2
20260509020517 21 0.0 1.6 0.00 0.00 0.00 83 1010.4
20260509015517 21 0.0 0.0 0.00 0.00 0.00 83 1010.3
20260509014537 21 0.0 0.0 0.00 0.00 0.00 83 1010.2
20260509013537 21 0.0 0.0 0.00 0.00 0.00 82 1010.0
20260509012537 21 0.0 0.0 0.00 0.00 0.00 82 1010.0
20260509011517 22 0.0 0.0 0.00 0.00 0.00 80 1009.7
20260509010536 22 0.0 0.0 0.00 0.00 0.00 80 1009.6
20260509005517 22 0.0 0.0 0.00 0.00 0.00 79 1009.4
20260509004517 22 0.0 1.6 0.00 0.00 0.00 78 1009.2
20260509003517 22 135 1.6 1.6 0.00 0.00 0.00 78 1009.3
20260509002517 22 0.0 1.6 0.00 0.00 0.00 77 1009.2
20260509001517 22 0.0 1.6 0.00 0.00 0.00 76 1009.4
20260509000517 23 113 1.6 6.4 0.00 0.00 0.00 75 1009.5
20260508235517 23 135 1.6 3.2 0.00 0.00 0.00 75 1009.6
20260508234517 23 135 3.2 6.4 0.00 0.00 0.00 74 1009.8
20260508233537 23 135 1.6 3.2 0.00 0.00 0.00 73 1009.8
20260508232517 23 0.0 1.6 0.00 0.00 0.00 72 1009.9
20260508231537 23 135 1.6 3.2 0.00 0.00 0.00 72 1009.9
20260508230517 23 135 1.6 3.2 0.00 0.00 0.00 73 1010.0
20260508225517 23 135 1.6 3.2 0.00 0.00 0.00 73 1010.0
20260508224517 23 113 1.6 3.2 0.00 0.00 0.00 72 1010.0
20260508223517 23 225 1.6 4.8 0.00 0.00 0.00 73 1010.0
20260508222517 23 225 3.2 6.4 0.00 0.00 0.00 74 1010.0
20260508221517 23 68 3.2 6.4 0.00 0.00 0.00 73 1009.9
20260508220517 23 158 3.2 4.8 0.00 0.00 0.00 72 1009.8
20260508215517 23 90 3.2 6.4 0.00 0.00 0.00 71 1009.6
20260508214517 24 90 6.4 12.9 0.00 0.00 0.00 70 1009.5
20260508213517 23 158 1.6 4.8 0.00 0.00 0.00 76 1009.6
20260508212517 22 0.0 0.0 0.00 0.00 0.00 79 1009.6
20260508211537 21 0 3.2 8.0 0.00 0.00 0.00 79 1010.1
20260508210517 22 0.0 1.6 0.00 0.00 0.00 76 1010.8
20260508205517 22 225 1.6 3.2 0.00 0.00 0.00 73 1011.6
20260508204517 22 0 1.6 1.6 0.00 0.00 0.00 71 1011.8
20260508203517 23 203 1.6 3.2 0.00 0.00 0.00 71 1011.7
20260508202517 23 203 3.2 6.4 0.00 0.00 0.00 70 1011.7
20260508201537 23 0.0 0.0 0.00 0.00 0.00 67 1011.7
20260508200536 23 0.0 3.2 0.00 0.00 0.00 67 1011.6
20260508195537 24 225 1.6 4.8 0.00 0.00 0.00 66 1011.7
20260508194517 25 203 3.2 6.4 0.00 0.00 0.00 65 1011.8
20260508193517 24 113 1.6 3.2 0.00 0.00 0.00 66 1011.8
20260508192517 24 90 1.6 3.2 0.00 0.00 0.00 66 1011.9
20260508191517 24 158 4.8 8.0 0.00 0.00 0.00 65 1012.1
20260508190517 25 203 1.6 3.2 0.00 0.00 0.00 63 1012.3
20260508185517 25 68 3.2 6.4 0.00 0.00 0.00 60 1012.3
20260508184517 25 113 3.2 6.4 0.00 0.00 0.00 62 1012.2
20260508183517 25 270 1.6 3.2 0.00 0.00 0.00 65 1012.4
20260508182517 25 113 1.6 3.2 0.00 0.00 0.00 64 1012.6
20260508181517 25 135 3.2 4.8 0.00 0.00 0.00 62 1012.7
20260508180536 25 0.0 3.2 0.00 0.00 0.00 62 1013.0
20260508175517 25 158 3.2 4.8 0.00 0.00 0.00 61 1013.1
20260508174517 23 180 1.6 4.8 0.00 0.00 0.00 64 1013.4
20260508173517 24 135 1.6 3.2 0.00 0.00 0.00 63 1013.4
20260508172517 23 113 4.8 9.7 0.00 0.00 0.00 64 1013.6
20260508171517 23 248 3.2 6.4 0.00 0.00 0.00 65 1013.7
20260508170517 23 225 3.2 8.0 0.00 0.00 0.00 67 1014.1
20260508165517 22 270 3.2 4.8 0.00 0.00 0.00 67 1014.4
20260508164518 22 135 1.6 3.2 0.00 0.00 0.00 67 1014.6
20260508163538 22 248 3.2 4.8 0.00 0.00 0.00 67 1014.9
20260508162518 21 158 3.2 8.0 0.00 0.00 0.00 68 1015.0
20260508161518 21 135 4.8 8.0 0.00 0.00 0.00 68 1015.1
20260508160518 22 225 1.6 3.2 0.00 0.00 0.00 67 1015.1
20260508155518 21 135 3.2 6.4 0.00 0.00 0.00 71 1015.3
20260508154538 21 135 1.6 4.8 0.00 0.00 0.00 69 1015.4
20260508153518 20 90 1.6 3.2 0.00 0.00 0.00 70 1015.5
20260508152518 20 0.0 1.6 0.00 0.00 0.00 71 1015.6
20260508151517 20 203 1.6 4.8 0.00 0.00 0.00 70 1015.6
20260508150518 20 113 1.6 3.2 0.00 0.00 0.00 71 1015.6
20260508145538 20 158 1.6 3.2 0.00 0.00 0.00 71 1015.5
20260508144517 20 113 1.6 3.2 0.00 0.00 0.00 70 1015.4
20260508143517 20 180 1.6 6.4 0.00 0.00 0.00 72 1015.5
20260508141517 19 203 4.8 9.7 0.00 0.00 0.00 73 1015.8
20260508140518 19 135 1.6 4.8 0.00 0.00 0.00 74 1015.9
20260508135517 18 135 3.2 4.8 0.00 0.00 0.00 76 1015.9
20260508134518 18 90 3.2 4.8 0.00 0.00 0.00 78 1015.7
20260508133517 17 113 1.6 3.2 0.00 0.00 0.00 80 1015.8
20260508132518 17 113 1.6 3.2 0.00 0.00 0.00 83 1015.9
20260508131517 16 113 3.2 4.8 0.00 0.00 0.00 85 1015.9
20260508130518 16 0.0 0.0 0.00 0.00 0.00 87 1016.1
20260508125517 16 0.0 0.0 0.00 0.00 0.00 88 1016.0
20260508124517 15 0.0 0.0 0.00 0.00 0.00 88 1016.2
20260508123517 15 0.0 0.0 0.00 0.00 0.00 89 1015.8
20260508122537 15 0.0 0.0 0.00 0.00 0.00 89 1015.9
20260508121517 15 0.0 0.0 0.00 0.00 0.00 89 1016.0
20260508120538 15 0.0 0.0 0.00 0.00 0.00 89 1015.9
20260508115517 15 0.0 0.0 0.00 0.00 0.00 89 1016.0
20260508114517 15 0.0 0.0 0.00 0.00 0.00 89 1016.0
20260508113537 15 0.0 0.0 0.00 0.00 0.00 89 1016.3